TimePDT,TemperatureF,Dew PointF,Humidity,Sea Level PressureIn,VisibilityMPH,Wind Direction,Wind SpeedMPH,Gust SpeedMPH,PrecipitationIn,Events,Conditions,WindDirDegrees,DateUTC
12:53 AM,48.9,43.0,80,30.09,10.0,Calm,Calm,-,N/A,,Clear,0,2012-09-14 07:53:00
1:53 AM,48.9,43.0,80,30.09,10.0,Calm,Calm,-,N/A,,Clear,0,2012-09-14 08:53:00
2:53 AM,46.9,43.0,86,30.09,10.0,Calm,Calm,-,N/A,,Clear,0,2012-09-14 09:53:00
3:53 AM,46.0,42.1,86,30.08,10.0,Calm,Calm,-,N/A,,Clear,0,2012-09-14 10:53:00
4:53 AM,44.1,41.0,89,30.08,10.0,Calm,Calm,-,N/A,,Clear,0,2012-09-14 11:53:00
5:53 AM,45.0,42.1,90,30.09,10.0,Calm,Calm,-,N/A,,Clear,0,2012-09-14 12:53:00
6:53 AM,45.0,42.1,90,30.09,10.0,Calm,Calm,-,N/A,,Clear,0,2012-09-14 13:53:00
7:53 AM,51.1,46.9,86,30.11,10.0,Calm,Calm,-,N/A,,Clear,0,2012-09-14 14:53:00
8:53 AM,60.1,50.0,69,30.11,10.0,North,3.5,-,N/A,,Clear,360,2012-09-14 15:53:00
9:53 AM,64.0,52.0,65,30.12,10.0,Variable,5.8,-,N/A,,Clear,0,2012-09-14 16:53:00
10:53 AM,64.0,51.1,63,30.12,10.0,Variable,6.9,-,N/A,,Clear,0,2012-09-14 17:53:00
11:53 AM,66.0,48.9,54,30.11,10.0,Variable,6.9,-,N/A,,Clear,0,2012-09-14 18:53:00
12:53 PM,70.0,48.0,46,30.10,10.0,North,9.2,-,N/A,,Clear,360,2012-09-14 19:53:00
1:53 PM,72.0,46.0,40,30.09,10.0,North,8.1,-,N/A,,Clear,10,2012-09-14 20:53:00
2:53 PM,73.0,44.1,35,30.08,10.0,North,3.5,-,N/A,,Clear,350,2012-09-14 21:53:00
3:53 PM,73.9,44.1,34,30.06,10.0,North,8.1,-,N/A,,Clear,360,2012-09-14 22:53:00
4:53 PM,72.0,46.0,40,30.05,10.0,Variable,3.5,-,N/A,,Clear,0,2012-09-14 23:53:00
5:53 PM,71.1,45.0,39,30.04,10.0,North,3.5,-,N/A,,Clear,10,2012-09-15 00:53:00
6:53 PM,62.1,48.0,60,30.03,10.0,Calm,Calm,-,N/A,,Clear,0,2012-09-15 01:53:00
7:53 PM,57.0,46.9,69,30.04,10.0,Calm,Calm,-,N/A,,Clear,0,2012-09-15 02:53:00
8:53 PM,54.0,46.0,75,30.06,10.0,West,4.6,-,N/A,,Clear,270,2012-09-15 03:53:00
9:53 PM,53.1,46.0,77,30.06,10.0,Calm,Calm,-,N/A,,Clear,0,2012-09-15 04:53:00
10:53 PM,52.0,46.9,83,30.06,10.0,Calm,Calm,-,N/A,,Clear,0,2012-09-15 05:53:00
11:53 PM,50.0,46.9,89,30.07,10.0,Calm,Calm,-,N/A,,Clear,0,2012-09-15 06:53:00